Weather History for KMAO - December, 2013

Change the Weather History Date:

Wednesday, December 4, 2013

  Actual Average (KFLO) Record (KFLO)
Temperature  
Mean Temperature 58 °F 50 °F  
Max Temperature 64 °F 61 °F 80 °F (1978)
Min Temperature 53 °F 39 °F 20 °F (1989)
Degree Days  
Heating Degree Days 6 15  
Month to date heating degree days 60  
Since 1 July heating degree days 482  
Cooling Degree Days 0 0  
Month to date cooling degree days 0  
Year to date cooling degree days 2059  
Growing Degree Days 8 (Base 50)    
Moisture  
Dew Point 57 °F    
Average Humidity 96    
Maximum Humidity 100    
Minimum Humidity 83    
Precipitation  
Precipitation 0.24 in 0.09 in 1.96 in (1953)
Month to date precipitation 0.36  
Year to date precipitation 40.26  
Sea Level Pressure  
Sea Level Pressure 30.05 in    
Wind  
Wind Speed 2 mph (South)    
Max Wind Speed 7 mph    
Max Gust Speed -    
Visibility 5 miles    
Events Fog , Rain    
T = Trace of Precipitation, MM = Missing Value Source: NWS Daily Summary

Daily Weather History Graph

Daily Weather History Graph

Search for Another Location

Airport or City:

Trip Planner

Search our weather history database for the weather conditions in past years. The results will help you decide how hot, cold, wet, or windy it might be!

Date:

Astronomy

Dec. 04, 2013 Rise Set
Actual Time 7:07 AM EST 5:07 PM EST
Civil Twilight 6:40 AM EST 5:35 PM EST
Nautical Twilight 6:09 AM EST 6:06 PM EST
Astronomical Twilight 5:38 AM EST 6:36 PM EST
Moon 8:35 AM EST 7:13 PM EST
Length of Visible Light 10h 54m
Length of Day
9h 59m
Waxing Crescent, 4% of the Moon is Illuminated
Dec 4
Waxing Crescent
Dec 9
First Quarter
Dec 17
Full
Dec 25
Last Quarter
Jan 1
New

Hourly Weather History & Observations

Time (EST) Temp. Dew Point Humidity Pressure Visibility Wind Dir Wind Speed Gust Speed Precip Events Conditions
12:15 AM 53.6 °F 53.6 °F 100% 30.01 in 7.0 mi SSE 4.6 mph - N/A Rain Light Rain
12:35 AM 53.6 °F 53.6 °F 100% 30.00 in 7.0 mi SSE 3.5 mph - N/A   Overcast
12:55 AM 53.6 °F 53.6 °F 100% 30.00 in 5.0 mi SE 4.6 mph - 0.01 in Rain Rain
1:15 AM 55.4 °F 55.4 °F 100% 30.00 in 5.0 mi South 5.8 mph - N/A   Overcast
1:35 AM 55.4 °F 55.4 °F 100% 30.00 in 5.0 mi Calm Calm - N/A   Overcast
1:55 AM 55.4 °F 55.4 °F 100% 30.00 in 4.0 mi South 3.5 mph - N/A   Overcast
2:15 AM 55.4 °F 55.4 °F 100% 30.01 in 5.0 mi Calm Calm - N/A   Overcast
2:35 AM 55.4 °F 55.4 °F 100% 30.00 in 2.0 mi Calm Calm - N/A Rain Rain
2:55 AM 55.4 °F 55.4 °F 100% 30.00 in 3.0 mi Calm Calm - 0.01 in   Overcast
3:15 AM 55.4 °F 55.4 °F 100% 30.00 in 3.0 mi Calm Calm - N/A   Mostly Cloudy
3:35 AM 53.6 °F 53.6 °F 100% 30.00 in 1.2 mi Calm Calm - N/A   Overcast
3:55 AM 55.4 °F 55.4 °F 100% 30.00 in 2.0 mi Calm Calm - 0.01 in Rain Light Rain
4:15 AM 53.6 °F 53.6 °F 100% 30.00 in 1.5 mi Calm Calm - N/A   Mostly Cloudy
4:35 AM 53.6 °F 53.6 °F 100% 30.01 in 2.5 mi Calm Calm - 0.01 in Rain Rain
4:55 AM 55.4 °F 55.4 °F 100% 30.01 in 2.0 mi Calm Calm - 0.06 in Rain Rain
5:15 AM 55.4 °F 55.4 °F 100% 30.00 in 4.0 mi ESE 4.6 mph - 0.01 in Rain Rain
5:35 AM 55.4 °F 55.4 °F 100% 30.00 in 5.0 mi ESE 4.6 mph - 0.02 in Rain Light Rain
5:55 AM 55.4 °F 55.4 °F 100% 30.00 in 4.0 mi East 3.5 mph - 0.04 in Rain Rain
6:15 AM 55.4 °F 55.4 °F 100% 30.01 in 3.0 mi Calm Calm - 0.02 in Rain Rain
6:35 AM 55.4 °F 55.4 °F 100% 30.02 in 3.0 mi Calm Calm - 0.06 in Rain Rain
6:55 AM 55.4 °F 55.4 °F 100% 30.02 in 3.0 mi Calm Calm - 0.07 in Rain Rain
7:15 AM 57.2 °F 57.2 °F 100% 30.02 in 4.0 mi East 3.5 mph - 0.01 in Rain Light Rain
7:35 AM 57.2 °F 57.2 °F 100% 30.03 in 4.0 mi Calm Calm - 0.01 in   Drizzle
7:55 AM 57.2 °F 57.2 °F 100% 30.03 in 2.5 mi East 3.5 mph - 0.02 in   Heavy Drizzle
8:15 AM 57.2 °F 57.2 °F 100% 30.04 in 3.0 mi Calm Calm - 0.01 in   Heavy Drizzle
8:35 AM 57.2 °F 57.2 °F 100% 30.05 in 2.5 mi Calm Calm - 0.01 in   Heavy Drizzle
8:55 AM 59.0 °F 59.0 °F 100% 30.05 in 3.0 mi Calm Calm - 0.02 in   Light Drizzle
9:15 AM 59.0 °F 59.0 °F 100% 30.06 in 4.0 mi Calm Calm - N/A   Overcast
9:35 AM 59.0 °F 59.0 °F 100% 30.06 in 4.0 mi Calm Calm - N/A   Overcast
9:55 AM 59.0 °F 59.0 °F 100% 30.06 in 4.0 mi Calm Calm - N/A   Overcast
10:15 AM 60.8 °F 60.8 °F 100% 30.06 in 5.0 mi Calm Calm - N/A   Overcast
10:35 AM 60.8 °F 60.8 °F 100% 30.07 in 7.0 mi Calm Calm - N/A   Overcast
10:55 AM 62.6 °F 60.8 °F 94% 30.06 in 7.0 mi SW 3.5 mph - N/A   Overcast
11:15 AM 62.6 °F 60.8 °F 94% 30.07 in 10.0 mi West 4.6 mph - N/A   Overcast
11:35 AM 64.4 °F 60.8 °F 88% 30.07 in 10.0 mi WNW 5.8 mph - N/A   Overcast
11:55 AM 64.4 °F 60.8 °F 88% 30.07 in 10.0 mi West 4.6 mph - N/A   Overcast
12:15 PM 64.4 °F 60.8 °F 88% 30.06 in 10.0 mi WNW 6.9 mph - N/A   Overcast
12:35 PM 64.4 °F 60.8 °F 88% 30.05 in 10.0 mi WNW 5.8 mph - N/A   Overcast
12:55 PM 64.4 °F 60.8 °F 88% 30.05 in 10.0 mi West 6.9 mph - N/A   Overcast
1:15 PM 64.4 °F 59.0 °F 83% 30.04 in 10.0 mi WSW 4.6 mph - N/A   Overcast
1:35 PM 62.6 °F 59.0 °F 88% 30.03 in 10.0 mi Calm Calm - N/A   Overcast
1:55 PM 64.4 °F 59.0 °F 83% 30.03 in 10.0 mi WSW 3.5 mph - N/A   Overcast
2:15 PM 64.4 °F 59.0 °F 83% 30.02 in 10.0 mi Calm Calm - N/A   Overcast
2:35 PM 64.4 °F 59.0 °F 83% 30.02 in 10.0 mi SW 3.5 mph - N/A   Overcast
2:55 PM 64.4 °F 59.0 °F 83% 30.03 in 10.0 mi West 3.5 mph - N/A   Overcast
3:15 PM 64.4 °F 59.0 °F 83% 30.03 in 10.0 mi Calm Calm - N/A   Overcast
3:35 PM 64.4 °F 59.0 °F 83% 30.04 in 10.0 mi Calm Calm - N/A   Overcast
3:55 PM 64.4 °F 59.0 °F 83% 30.03 in 10.0 mi Calm Calm - N/A   Overcast
4:15 PM 64.4 °F 59.0 °F 83% 30.04 in 10.0 mi Calm Calm - N/A   Overcast
4:35 PM 62.6 °F 59.0 °F 88% 30.05 in 10.0 mi Calm Calm - N/A   Overcast
4:55 PM 62.6 °F 59.0 °F 88% 30.05 in 7.0 mi Calm Calm - N/A   Overcast
5:15 PM 62.6 °F 59.0 °F 88% 30.06 in 10.0 mi Calm Calm - N/A   Overcast
5:35 PM 62.6 °F 59.0 °F 88% 30.06 in 10.0 mi Calm Calm - N/A   Overcast
5:55 PM 60.8 °F 59.0 °F 94% 30.07 in 7.0 mi Calm Calm - N/A   Scattered Clouds
6:15 PM 59.0 °F 57.2 °F 94% 30.07 in 5.0 mi Calm Calm - N/A   Clear
6:35 PM 59.0 °F 59.0 °F 100% 30.08 in 1.5 mi Calm Calm - N/A   Mist
6:55 PM 55.4 °F 55.4 °F 100% 30.08 in 1.0 mi Calm Calm - N/A   Mist
7:15 PM 55.4 °F 55.4 °F 100% 30.09 in 0.2 mi Calm Calm - N/A Fog Fog
7:35 PM 55.4 °F 55.4 °F 100% 30.08 in 0.2 mi Calm Calm - N/A Fog Fog
7:55 PM 53.6 °F 53.6 °F 100% 30.07 in 0.2 mi East 4.6 mph - N/A Fog Fog
8:15 PM 55.4 °F 55.4 °F 100% 30.08 in 3.0 mi Calm Calm - N/A   Clear
8:35 PM 53.6 °F 53.6 °F 100% 30.09 in 0.2 mi Calm Calm - N/A Fog Fog
8:55 PM 53.6 °F 53.6 °F 100% 30.10 in 0.5 mi Calm Calm - N/A Fog Fog
9:15 PM 53.6 °F 53.6 °F 100% 30.10 in 1.5 mi Calm Calm - N/A   Mostly Cloudy
9:35 PM 55.4 °F 55.4 °F 100% 30.10 in 0.2 mi Calm Calm - N/A Fog Fog
9:55 PM 53.6 °F 53.6 °F 100% 30.09 in 0.2 mi ESE 3.5 mph - N/A Fog Fog
10:15 PM 53.6 °F 53.6 °F 100% 30.10 in 0.5 mi Calm Calm - N/A Fog Fog
10:35 PM 53.6 °F 53.6 °F 100% 30.11 in 0.2 mi Calm Calm - N/A Fog Fog
10:55 PM 53.6 °F 53.6 °F 100% 30.11 in 0.2 mi Calm Calm - N/A Fog Fog
11:15 PM 53.6 °F 53.6 °F 100% 30.11 in 0.2 mi Calm Calm - N/A Fog Fog
11:35 PM 55.4 °F 55.4 °F 100% 30.11 in 2.0 mi Calm Calm - N/A   Clear
11:55 PM 55.4 °F 55.4 °F 100% 30.11 in 1.5 mi SE 3.5 mph - N/A   Mist